Volver al catálogo

QIANFAN-90

ActivoComunicacionesPO
NORAD 63176·PAYLOAD·🇨🇳 China

Lanzado Mar 11, 2025 desde Wenchang Space Launch Site

Loading…

Próximos Pases (próximas 24 horas)

TLE

ActualizadoSource: Space-Track

Época: Sep 14, 2026, 20:44 UTC

1 63176U 25046T   26257.86427750  .00000025  00000-0  20119-4 0  9995
2 63176  88.9652 291.3476 0015012  52.6242 307.6274 13.51019803 84704

Sigue QIANFAN-90 en tiempo real con AllMySat

Download on the App Store